TimePDT,TemperatureF,Dew PointF,Humidity,Sea Level PressureIn,VisibilityMPH,Wind Direction,Wind SpeedMPH,Gust SpeedMPH,PrecipitationIn,Events,Conditions,WindDirDegrees,DateUTC
12:56 AM,52.0,34.0,50,29.90,10.0,Calm,Calm,-,N/A,,Clear,0,2013-09-24 07:56:00
1:56 AM,50.0,33.1,52,29.90,10.0,SSE,5.8,-,N/A,,Clear,150,2013-09-24 08:56:00
2:56 AM,48.0,28.9,48,29.88,10.0,SE,10.4,-,N/A,,Clear,130,2013-09-24 09:56:00
3:56 AM,48.0,30.0,50,29.88,10.0,SSE,5.8,-,N/A,,Clear,160,2013-09-24 10:56:00
4:56 AM,48.0,28.0,46,29.86,10.0,SSE,11.5,-,N/A,,Clear,150,2013-09-24 11:56:00
5:56 AM,48.0,28.0,46,29.86,10.0,SE,6.9,-,N/A,,Clear,140,2013-09-24 12:56:00
6:20 AM,46.4,26.6,46,29.93,10.0,SE,8.1,-,N/A,,Scattered Clouds,140,2013-09-24 13:20:00
6:56 AM,48.0,28.0,46,29.85,10.0,Calm,Calm,-,N/A,,Scattered Clouds,0,2013-09-24 13:56:00
7:56 AM,54.0,28.9,38,29.85,10.0,Calm,Calm,-,N/A,,Scattered Clouds,0,2013-09-24 14:56:00
8:56 AM,64.0,28.9,27,29.86,10.0,SSW,3.5,-,N/A,,Scattered Clouds,200,2013-09-24 15:56:00
9:56 AM,70.0,25.0,18,29.85,10.0,SSW,3.5,-,N/A,,Scattered Clouds,200,2013-09-24 16:56:00
10:56 AM,75.0,26.1,16,29.83,10.0,South,6.9,-,N/A,,Scattered Clouds,180,2013-09-24 17:56:00
11:56 AM,80.1,28.9,15,29.80,10.0,SW,15.0,24.2,0.00,,Scattered Clouds,220,2013-09-24 18:56:00
12:56 PM,82.9,27.0,13,29.78,10.0,WSW,24.2,34.5,N/A,,Scattered Clouds,250,2013-09-24 19:56:00
2:56 PM,81.0,21.9,11,29.75,10.0,WNW,25.3,39.1,N/A,,Mostly Cloudy,290,2013-09-24 21:56:00
3:56 PM,80.1,19.0,10,29.75,10.0,West,31.1,42.6,N/A,,Scattered Clouds,280,2013-09-24 22:56:00
4:56 PM,77.0,21.9,13,29.75,10.0,WNW,26.5,33.4,N/A,,Mostly Cloudy,290,2013-09-24 23:56:00
5:56 PM,73.9,21.0,14,29.74,10.0,West,16.1,-,N/A,,Mostly Cloudy,280,2013-09-25 00:56:00
6:56 PM,70.0,19.0,14,29.73,10.0,West,12.7,-,N/A,,Mostly Cloudy,270,2013-09-25 01:56:00
7:56 PM,66.0,21.9,19,29.74,10.0,West,9.2,-,N/A,,Scattered Clouds,280,2013-09-25 02:56:00
8:56 PM,62.1,30.9,31,29.73,10.0,WNW,5.8,-,N/A,,Scattered Clouds,300,2013-09-25 03:56:00
9:56 PM,61.0,33.1,35,29.72,10.0,WNW,9.2,-,N/A,,Scattered Clouds,300,2013-09-25 04:56:00